Rawlins, WY

11:17 PM MDT on September 21, 2017 (GMT -0600)
Rawlins Municipal

Weather History for KRWL - April, 2014

Change the Weather History Date:

Friday, April 25, 2014

  Actual Average Record
Temperature  
Mean Temperature 48 °F 43 °F  
Max Temperature 67 °F 57 °F 75 °F (1981)
Min Temperature 28 °F 29 °F 19 °F (1968)
Degree Days  
Heating Degree Days 17 22  
Month to date heating degree days 577 640  
Since 1 July heating degree days 7282 7612  
Cooling Degree Days 0 0  
Month to date cooling degree days 0 0  
Year to date cooling degree days 0 0  
Moisture  
Dew Point 16 °F    
Average Humidity 38    
Maximum Humidity 63    
Minimum Humidity 13    
Precipitation  
Precipitation 0.00 in 0.04 in 0.92 in (2009)
Month to date precipitation 0.44 0.86  
Year to date precipitation 1.49 2.32  
Sea Level Pressure  
Sea Level Pressure 29.68 in    
Wind  
Wind Speed 13 mph (SW)    
Max Wind Speed 31 mph    
Max Gust Speed 39 mph    
Visibility 10 miles    
Events      
T = Trace of Precipitation, MM = Missing Value Source: NWS Daily Summary

Daily Weather History Graph

Daily Weather History Graph

Search for Another Location

Airport or City:

Trip Planner

Search our weather history database for the weather conditions in past years. The results will help you decide how hot, cold, wet, or windy it might be!

Date:

Astronomy

Apr. 25, 2014 Rise Set
Actual Time 6:13 AM MDT 8:00 PM MDT
Civil Twilight 5:43 AM MDT 8:30 PM MDT
Nautical Twilight 5:07 AM MDT 9:06 PM MDT
Astronomical Twilight 4:28 AM MDT 9:45 PM MDT
Moon 4:06 AM MDT (4/25) 4:23 PM MDT (4/25)
Length of Visible Light 14h 46m
Length of Day
13h 47m
Waning Crescent, 15% of the Moon is Illuminated
Apr 25
Waning Crescent
Apr 29
New
May 6
First Quarter
May 14
Full
May 21
Last Quarter

Hourly Weather History & Observations

Time (MDT) Temp. Windchill Dew Point Humidity Pressure Visibility Wind Dir Wind Speed Gust Speed Precip Events Conditions
12:53 AM 35.1 °F - 18.0 °F 50% 29.89 in 10.0 mi Calm Calm - N/A   Clear
1:53 AM 30.9 °F - 18.0 °F 59% 29.88 in 10.0 mi Calm Calm - N/A   Scattered Clouds
2:53 AM 28.9 °F 22.8 °F 18.0 °F 64% 29.88 in 10.0 mi NW 5.8 mph - N/A   Clear
3:53 AM 34.0 °F - 19.0 °F 54% 29.84 in 10.0 mi Calm Calm - N/A   Clear
4:53 AM 34.0 °F 28.8 °F 19.9 °F 56% 29.84 in 10.0 mi WSW 5.8 mph - N/A   Mostly Cloudy
5:53 AM 34.0 °F - 19.9 °F 56% 29.83 in 10.0 mi Calm Calm - N/A   Mostly Cloudy
6:53 AM 35.1 °F - 21.0 °F 57% 29.79 in 10.0 mi Calm Calm - N/A   Clear
7:53 AM 42.1 °F 40.2 °F 21.0 °F 43% 29.77 in 10.0 mi ENE 3.5 mph - N/A   Clear
8:53 AM 48.0 °F - 21.9 °F 36% 29.74 in 10.0 mi NE 4.6 mph - N/A   Clear
9:53 AM 54.0 °F - 17.1 °F 23% 29.71 in 10.0 mi SSW 16.1 mph 24.2 mph N/A   Scattered Clouds
10:53 AM 57.0 °F - 12.0 °F 17% 29.69 in 10.0 mi SW 24.2 mph 36.8 mph N/A   Partly Cloudy
11:53 AM 60.1 °F - 12.9 °F 16% 29.67 in 10.0 mi SW 26.5 mph 35.7 mph N/A   Clear
12:53 PM 63.0 °F - 16.0 °F 16% 29.64 in 10.0 mi SW 24.2 mph 38.0 mph N/A   Clear
1:53 PM 64.0 °F - 15.1 °F 15% 29.63 in 10.0 mi SW 26.5 mph 38.0 mph N/A   Clear
2:53 PM 66.0 °F - 15.1 °F 14% 29.61 in 10.0 mi WSW 23.0 mph 39.1 mph N/A   Clear
3:53 PM 66.0 °F - 15.1 °F 14% 29.57 in 10.0 mi SSW 29.9 mph 38.0 mph N/A   Scattered Clouds
4:53 PM 63.0 °F - 12.9 °F 14% 29.55 in 10.0 mi SSW 20.7 mph 28.8 mph N/A   Clear
5:53 PM 64.0 °F - 12.0 °F 13% 29.52 in 10.0 mi SSW 21.9 mph 26.5 mph N/A   Clear
6:53 PM 61.0 °F - 10.9 °F 14% 29.51 in 10.0 mi SW 20.7 mph 28.8 mph N/A   Clear
7:53 PM 55.9 °F - 12.9 °F 18% 29.50 in 10.0 mi SSW 9.2 mph - N/A   Clear
8:53 PM 53.1 °F - 16.0 °F 23% 29.49 in 10.0 mi SSW 10.4 mph - N/A   Partly Cloudy
11:53 PM 45.0 °F 41.8 °F 15.1 °F 30% 29.44 in 10.0 mi West 5.8 mph - N/A   Clear